Year,Month,Day,Hour,Minute,Value (Times are PST for temperature in C)
2009,05,15,00,00,8.40
2009,05,15,00,01,8.40
2009,05,15,00,02,8.40
2009,05,15,00,03,8.40
2009,05,15,00,04,8.40
2009,05,15,00,05,8.40
2009,05,15,00,06,8.40
2009,05,15,00,07,8.40
2009,05,15,00,08,8.40
2009,05,15,00,09,8.40
2009,05,15,00,10,8.40
2009,05,15,00,11,8.30
2009,05,15,00,12,8.30
2009,05,15,00,13,8.30
2009,05,15,00,14,8.30
2009,05,15,00,15,8.30
2009,05,15,00,16,8.30
2009,05,15,00,17,8.30
2009,05,15,00,18,8.30
2009,05,15,00,19,8.20
2009,05,15,00,20,8.20
2009,05,15,00,21,8.20
2009,05,15,00,22,8.20
2009,05,15,00,23,8.20
2009,05,15,00,24,8.10
2009,05,15,00,25,8.10
2009,05,15,00,26,8.10
2009,05,15,00,27,8.10
2009,05,15,00,28,8.00
2009,05,15,00,29,8.00
2009,05,15,00,30,8.00
2009,05,15,00,31,7.90
2009,05,15,00,32,7.90
2009,05,15,00,33,7.90
2009,05,15,00,34,7.90
2009,05,15,00,35,7.90
2009,05,15,00,36,7.90
2009,05,15,00,37,7.90
2009,05,15,00,38,7.90
2009,05,15,00,39,7.90
2009,05,15,00,40,7.90
2009,05,15,00,41,7.80
2009,05,15,00,42,7.80
2009,05,15,00,43,7.80
2009,05,15,00,44,7.80
2009,05,15,00,45,7.80
2009,05,15,00,46,7.80
2009,05,15,00,47,7.80
2009,05,15,00,48,7.70
2009,05,15,00,49,7.70
2009,05,15,00,50,7.70
2009,05,15,00,51,7.60
2009,05,15,00,52,7.60
2009,05,15,00,53,7.60
2009,05,15,00,54,7.60
2009,05,15,00,55,7.60
2009,05,15,00,56,7.60
2009,05,15,00,57,7.60
2009,05,15,00,58,7.50
2009,05,15,00,59,7.50
2009,05,15,01,00,7.50
2009,05,15,01,01,7.40
2009,05,15,01,02,7.40
2009,05,15,01,03,7.40
2009,05,15,01,04,7.40
2009,05,15,01,05,7.30
2009,05,15,01,06,7.30
2009,05,15,01,07,7.30
2009,05,15,01,08,7.30
2009,05,15,01,09,7.30
2009,05,15,01,10,7.30
2009,05,15,01,11,7.20
2009,05,15,01,12,7.20
2009,05,15,01,13,7.20
2009,05,15,01,14,7.20
2009,05,15,01,15,7.20
2009,05,15,01,16,7.20
2009,05,15,01,17,7.20
2009,05,15,01,18,7.20
2009,05,15,01,19,7.20
2009,05,15,01,20,7.20
2009,05,15,01,21,7.20
2009,05,15,01,22,7.20
2009,05,15,01,23,7.20
2009,05,15,01,24,7.20
2009,05,15,01,25,7.20
2009,05,15,01,26,7.20
2009,05,15,01,27,7.20
2009,05,15,01,28,7.10
2009,05,15,01,29,7.10
2009,05,15,01,30,7.10
2009,05,15,01,31,7.00
2009,05,15,01,32,7.00
2009,05,15,01,33,6.90
2009,05,15,01,34,6.90
2009,05,15,01,35,6.80
2009,05,15,01,36,6.80
2009,05,15,01,37,6.80
2009,05,15,01,38,6.80
2009,05,15,01,39,6.80
2009,05,15,01,40,6.80
2009,05,15,01,41,6.80
2009,05,15,01,42,6.80
2009,05,15,01,43,6.80
2009,05,15,01,44,6.80
2009,05,15,01,45,6.70
2009,05,15,01,46,6.70
2009,05,15,01,47,6.70
2009,05,15,01,48,6.70
2009,05,15,01,49,6.70
2009,05,15,01,50,6.70
2009,05,15,01,51,6.70
2009,05,15,01,52,6.60
2009,05,15,01,53,6.60
2009,05,15,01,54,6.60
2009,05,15,01,55,6.60
2009,05,15,01,56,6.60
2009,05,15,01,57,6.50
2009,05,15,01,58,6.50
2009,05,15,01,59,6.50
2009,05,15,02,00,6.50
2009,05,15,02,01,6.40
2009,05,15,02,02,6.40
2009,05,15,02,03,6.40
2009,05,15,02,04,6.40
2009,05,15,02,05,6.40
2009,05,15,02,06,6.40
2009,05,15,02,07,6.40
2009,05,15,02,08,6.40
2009,05,15,02,09,6.40
2009,05,15,02,10,6.40
2009,05,15,02,11,6.40
2009,05,15,02,12,6.40
2009,05,15,02,13,6.30
2009,05,15,02,14,6.30
2009,05,15,02,15,6.30
2009,05,15,02,16,6.30
2009,05,15,02,17,6.30
2009,05,15,02,18,6.30
2009,05,15,02,19,6.30
2009,05,15,02,20,6.30
2009,05,15,02,21,6.30
2009,05,15,02,22,6.30
2009,05,15,02,23,6.30
2009,05,15,02,24,6.20
2009,05,15,02,25,6.20
2009,05,15,02,26,6.20
2009,05,15,02,27,6.20
2009,05,15,02,28,6.20
2009,05,15,02,29,6.20
2009,05,15,02,30,6.10
2009,05,15,02,31,6.10
2009,05,15,02,32,6.10
2009,05,15,02,33,6.10
2009,05,15,02,34,6.10
2009,05,15,02,35,6.10
2009,05,15,02,36,6.10
2009,05,15,02,37,6.10
2009,05,15,02,38,6.10
2009,05,15,02,39,6.10
2009,05,15,02,40,6.10
2009,05,15,02,41,6.10
2009,05,15,02,42,6.10
2009,05,15,02,43,6.10
2009,05,15,02,44,6.10
2009,05,15,02,45,6.10
2009,05,15,02,46,6.10
2009,05,15,02,47,6.10
2009,05,15,02,48,6.10
2009,05,15,02,49,6.10
2009,05,15,02,50,6.10
2009,05,15,02,51,6.10
2009,05,15,02,52,6.10
2009,05,15,02,53,6.10
2009,05,15,02,54,6.10
2009,05,15,02,55,6.10
2009,05,15,02,56,6.00
2009,05,15,02,57,6.00
2009,05,15,02,58,6.00
2009,05,15,02,59,6.00
2009,05,15,03,00,6.00
2009,05,15,03,01,6.00
2009,05,15,03,02,6.00
2009,05,15,03,03,6.00
2009,05,15,03,04,6.00
2009,05,15,03,05,6.00
2009,05,15,03,06,6.00
2009,05,15,03,07,6.10
2009,05,15,03,08,6.10
2009,05,15,03,09,6.10
2009,05,15,03,10,6.20
2009,05,15,03,11,6.20
2009,05,15,03,12,6.20
2009,05,15,03,13,6.20
2009,05,15,03,14,6.20
2009,05,15,03,15,6.20
2009,05,15,03,16,6.20
2009,05,15,03,17,6.20
2009,05,15,03,18,6.20
2009,05,15,03,19,6.20
2009,05,15,03,20,6.20
2009,05,15,03,21,6.20
2009,05,15,03,22,6.20
2009,05,15,03,23,6.20
2009,05,15,03,24,6.20
2009,05,15,03,25,6.20
2009,05,15,03,26,6.10
2009,05,15,03,27,6.10
2009,05,15,03,28,6.10
2009,05,15,03,29,6.10
2009,05,15,03,30,6.10
2009,05,15,03,31,6.10
2009,05,15,03,32,6.10
2009,05,15,03,33,6.10
2009,05,15,03,34,6.10
2009,05,15,03,35,6.10
2009,05,15,03,36,6.10
2009,05,15,03,37,6.10
2009,05,15,03,38,6.10
2009,05,15,03,39,6.10
2009,05,15,03,40,6.10
2009,05,15,03,41,6.10
2009,05,15,03,42,6.10
2009,05,15,03,43,6.10
2009,05,15,03,44,6.10
2009,05,15,03,45,6.10
2009,05,15,03,46,6.10
2009,05,15,03,47,6.10
2009,05,15,03,48,6.10
2009,05,15,03,49,6.10
2009,05,15,03,50,6.10
2009,05,15,03,51,6.10
2009,05,15,03,52,6.10
2009,05,15,03,53,6.10
2009,05,15,03,54,6.10
2009,05,15,03,55,6.10
2009,05,15,03,56,6.10
2009,05,15,03,57,6.10
2009,05,15,03,58,6.10
2009,05,15,03,59,6.10
2009,05,15,04,00,6.10
2009,05,15,04,01,6.10
2009,05,15,04,02,6.20
2009,05,15,04,03,6.20
2009,05,15,04,04,6.20
2009,05,15,04,05,6.20
2009,05,15,04,06,6.20
2009,05,15,04,07,6.20
2009,05,15,04,08,6.20
2009,05,15,04,09,6.20
2009,05,15,04,10,6.20
2009,05,15,04,11,6.20
2009,05,15,04,12,6.20
2009,05,15,04,13,6.20
2009,05,15,04,14,6.20
2009,05,15,04,15,6.20
2009,05,15,04,16,6.20
2009,05,15,04,17,6.20
2009,05,15,04,18,6.20
2009,05,15,04,19,6.20
2009,05,15,04,20,6.20
2009,05,15,04,21,6.20
2009,05,15,04,22,6.20
2009,05,15,04,23,6.20
2009,05,15,04,24,6.20
2009,05,15,04,25,6.20
2009,05,15,04,26,6.20
2009,05,15,04,27,6.20
2009,05,15,04,28,6.20
2009,05,15,04,29,6.20
2009,05,15,04,30,6.20
2009,05,15,04,31,6.20
2009,05,15,04,32,6.30
2009,05,15,04,33,6.30
2009,05,15,04,34,6.30
2009,05,15,04,35,6.30
2009,05,15,04,36,6.30
2009,05,15,04,37,6.30
2009,05,15,04,38,6.30
2009,05,15,04,39,6.30
2009,05,15,04,40,6.30
2009,05,15,04,41,6.30
2009,05,15,04,42,6.30
2009,05,15,04,43,6.30
2009,05,15,04,44,6.30
2009,05,15,04,45,6.30
2009,05,15,04,46,6.30
2009,05,15,04,47,6.30
2009,05,15,04,48,6.30
2009,05,15,04,49,6.30
2009,05,15,04,50,6.40
2009,05,15,04,51,6.30
2009,05,15,04,52,6.30
2009,05,15,04,53,6.40
2009,05,15,04,54,6.40
2009,05,15,04,55,6.40
2009,05,15,04,56,6.40
2009,05,15,04,57,6.40
2009,05,15,04,58,6.40
2009,05,15,04,59,6.40
2009,05,15,05,00,6.40
2009,05,15,05,01,6.40
2009,05,15,05,02,6.40
2009,05,15,05,03,6.40
2009,05,15,05,04,6.40
2009,05,15,05,05,6.40
2009,05,15,05,06,6.40
2009,05,15,05,07,6.40
2009,05,15,05,08,6.40
2009,05,15,05,09,6.40
2009,05,15,05,10,6.40
2009,05,15,05,11,6.40
2009,05,15,05,12,6.40
2009,05,15,05,13,6.50
2009,05,15,05,14,6.50
2009,05,15,05,15,6.50
2009,05,15,05,16,6.50
2009,05,15,05,17,6.50
2009,05,15,05,18,6.50
2009,05,15,05,19,6.50
2009,05,15,05,20,6.50
2009,05,15,05,21,6.50
2009,05,15,05,22,6.50
2009,05,15,05,23,6.50
2009,05,15,05,24,6.50
2009,05,15,05,25,6.50
2009,05,15,05,26,6.40
2009,05,15,05,27,6.50
2009,05,15,05,28,6.40
2009,05,15,05,29,6.40
2009,05,15,05,30,6.40
2009,05,15,05,31,6.40
2009,05,15,05,32,6.40
2009,05,15,05,33,6.40
2009,05,15,05,34,6.40
2009,05,15,05,35,6.40
2009,05,15,05,36,6.40
2009,05,15,05,37,6.40
2009,05,15,05,38,6.40
2009,05,15,05,39,6.40
2009,05,15,05,40,6.40
2009,05,15,05,41,6.40
2009,05,15,05,42,6.40
2009,05,15,05,43,6.40
2009,05,15,05,44,6.30
2009,05,15,05,45,6.30
2009,05,15,05,46,6.30
2009,05,15,05,47,6.30
2009,05,15,05,48,6.30
2009,05,15,05,49,6.30
2009,05,15,05,50,6.30
2009,05,15,05,51,6.30
2009,05,15,05,52,6.30
2009,05,15,05,53,6.20
2009,05,15,05,54,6.20
2009,05,15,05,55,6.20
2009,05,15,05,56,6.20
2009,05,15,05,57,6.20
2009,05,15,05,58,6.30
2009,05,15,05,59,6.20
2009,05,15,06,00,6.20
2009,05,15,06,01,6.20
2009,05,15,06,02,6.20
2009,05,15,06,03,6.20
2009,05,15,06,04,6.20
2009,05,15,06,05,6.20
2009,05,15,06,06,6.20
2009,05,15,06,07,6.20
2009,05,15,06,08,6.20
2009,05,15,06,09,6.20
2009,05,15,06,10,6.30
2009,05,15,06,11,6.30
2009,05,15,06,12,6.30
2009,05,15,06,13,6.30
2009,05,15,06,14,6.30
2009,05,15,06,15,6.30
2009,05,15,06,16,6.30
2009,05,15,06,17,6.30
2009,05,15,06,18,6.30
2009,05,15,06,19,6.30
2009,05,15,06,20,6.30
2009,05,15,06,21,6.30
2009,05,15,06,22,6.30
2009,05,15,06,23,6.30
2009,05,15,06,24,6.40
2009,05,15,06,25,6.40
2009,05,15,06,26,6.40
2009,05,15,06,27,6.40
2009,05,15,06,28,6.40
2009,05,15,06,29,6.40
2009,05,15,06,30,6.50
2009,05,15,06,31,6.50
2009,05,15,06,32,6.60
2009,05,15,06,33,6.60
2009,05,15,06,34,6.60
2009,05,15,06,35,6.70
2009,05,15,06,36,6.70
2009,05,15,06,37,6.80
2009,05,15,06,38,6.80
2009,05,15,06,39,6.80
2009,05,15,06,40,6.90
2009,05,15,06,41,7.00
2009,05,15,06,42,7.00
2009,05,15,06,43,7.10
2009,05,15,06,44,7.20
2009,05,15,06,45,7.30
2009,05,15,06,46,7.30
2009,05,15,06,47,7.40
2009,05,15,06,48,7.50
2009,05,15,06,49,7.50
2009,05,15,06,50,7.60
2009,05,15,06,51,7.60
2009,05,15,06,52,7.70
2009,05,15,06,53,7.70
2009,05,15,06,54,7.80
2009,05,15,06,55,7.80
2009,05,15,06,56,7.90
2009,05,15,06,57,7.90
2009,05,15,06,58,8.00
2009,05,15,06,59,8.00
2009,05,15,07,00,8.10
2009,05,15,07,01,8.10
2009,05,15,07,02,8.20
2009,05,15,07,03,8.20
2009,05,15,07,04,8.30
2009,05,15,07,05,8.30
2009,05,15,07,06,8.30
2009,05,15,07,07,8.40
2009,05,15,07,08,8.40
2009,05,15,07,09,8.40
2009,05,15,07,10,8.50
2009,05,15,07,11,8.50
2009,05,15,07,12,8.50
2009,05,15,07,13,8.60
2009,05,15,07,14,8.60
2009,05,15,07,15,8.60
2009,05,15,07,16,8.60
2009,05,15,07,17,8.60
2009,05,15,07,18,8.60
2009,05,15,07,19,8.60
2009,05,15,07,20,8.70
2009,05,15,07,21,8.70
2009,05,15,07,22,8.70
2009,05,15,07,23,8.70
2009,05,15,07,24,8.70
2009,05,15,07,25,8.70
2009,05,15,07,26,8.80
2009,05,15,07,27,8.80
2009,05,15,07,28,8.80
2009,05,15,07,29,8.80
2009,05,15,07,30,8.80
2009,05,15,07,31,8.80
2009,05,15,07,32,8.80
2009,05,15,07,33,8.80
2009,05,15,07,34,8.80
2009,05,15,07,35,8.80
2009,05,15,07,36,8.80
2009,05,15,07,37,8.80
2009,05,15,07,38,8.80
2009,05,15,07,39,8.80
2009,05,15,07,40,8.80
2009,05,15,07,41,8.80
2009,05,15,07,42,8.80
2009,05,15,07,43,8.80
2009,05,15,07,44,8.80
2009,05,15,07,45,8.80
2009,05,15,07,46,8.80
2009,05,15,07,47,8.90
2009,05,15,07,48,8.90
2009,05,15,07,49,8.90
2009,05,15,07,50,8.90
2009,05,15,07,51,8.90
2009,05,15,07,52,8.90
2009,05,15,07,53,8.90
2009,05,15,07,54,8.90
2009,05,15,07,55,8.90
2009,05,15,07,56,8.90
2009,05,15,07,57,8.90
2009,05,15,07,58,8.90
2009,05,15,07,59,9.00
2009,05,15,08,00,9.00
2009,05,15,08,01,9.00
2009,05,15,08,02,9.00
2009,05,15,08,03,9.10
2009,05,15,08,04,9.10
2009,05,15,08,05,9.20
2009,05,15,08,06,9.20
2009,05,15,08,07,9.20
2009,05,15,08,08,9.30
2009,05,15,08,09,9.40
2009,05,15,08,10,9.50
2009,05,15,08,11,9.60
2009,05,15,08,12,9.70
2009,05,15,08,13,9.80
2009,05,15,08,14,9.90
2009,05,15,08,15,9.90
2009,05,15,08,16,9.90
2009,05,15,08,17,9.90
2009,05,15,08,18,9.90
2009,05,15,08,19,9.90
2009,05,15,08,20,9.90
2009,05,15,08,21,9.90
2009,05,15,08,22,9.90
2009,05,15,08,23,9.90
2009,05,15,08,24,9.90
2009,05,15,08,25,9.90
2009,05,15,08,26,9.90
2009,05,15,08,27,10.00
2009,05,15,08,28,10.00
2009,05,15,08,29,10.00
2009,05,15,08,30,10.00
2009,05,15,08,31,10.10
2009,05,15,08,32,10.10
2009,05,15,08,33,10.10
2009,05,15,08,34,10.10
2009,05,15,08,35,10.10
2009,05,15,08,36,10.00
2009,05,15,08,37,10.00
2009,05,15,08,38,10.00
2009,05,15,08,39,10.00
2009,05,15,08,40,10.00
2009,05,15,08,41,9.90
2009,05,15,08,42,9.90
2009,05,15,08,43,9.90
2009,05,15,08,44,9.90
2009,05,15,08,45,9.80
2009,05,15,08,46,9.80
2009,05,15,08,47,9.80
2009,05,15,08,48,9.80
2009,05,15,08,49,9.90
2009,05,15,08,50,9.90
2009,05,15,08,51,10.00
2009,05,15,08,52,10.10
2009,05,15,08,53,10.20
2009,05,15,08,54,10.30
2009,05,15,08,55,10.30
2009,05,15,08,56,10.30
2009,05,15,08,57,10.40
2009,05,15,08,58,10.40
2009,05,15,08,59,10.50
2009,05,15,09,00,10.60
2009,05,15,09,01,10.70
2009,05,15,09,02,10.80
2009,05,15,09,03,10.90
2009,05,15,09,04,10.90
2009,05,15,09,05,10.90
2009,05,15,09,06,10.90
2009,05,15,09,07,10.90
2009,05,15,09,08,10.80
2009,05,15,09,09,10.80
2009,05,15,09,10,10.80
2009,05,15,09,11,10.90
2009,05,15,09,12,10.90
2009,05,15,09,13,11.00
2009,05,15,09,14,11.00
2009,05,15,09,15,11.00
2009,05,15,09,16,11.00
2009,05,15,09,17,10.90
2009,05,15,09,18,10.90
2009,05,15,09,19,10.80
2009,05,15,09,20,10.80
2009,05,15,09,21,10.80
2009,05,15,09,22,10.80
2009,05,15,09,23,10.80
2009,05,15,09,24,10.70
2009,05,15,09,25,10.70
2009,05,15,09,26,10.70
2009,05,15,09,27,10.70
2009,05,15,09,28,10.70
2009,05,15,09,29,10.70
2009,05,15,09,30,10.80
2009,05,15,09,31,10.80
2009,05,15,09,32,10.80
2009,05,15,09,33,10.90
2009,05,15,09,34,10.90
2009,05,15,09,35,11.00
2009,05,15,09,36,11.00
2009,05,15,09,37,11.10
2009,05,15,09,38,11.20
2009,05,15,09,39,11.30
2009,05,15,09,40,11.30
2009,05,15,09,41,11.40
2009,05,15,09,42,11.40
2009,05,15,09,43,11.50
2009,05,15,09,44,11.50
2009,05,15,09,45,11.60
2009,05,15,09,46,11.70
2009,05,15,09,47,11.80
2009,05,15,09,48,11.90
2009,05,15,09,49,11.90
2009,05,15,09,50,12.00
2009,05,15,09,51,11.90
2009,05,15,09,52,11.90
2009,05,15,09,53,11.80
2009,05,15,09,54,11.90
2009,05,15,09,55,11.90
2009,05,15,09,56,11.90
2009,05,15,09,57,11.90
2009,05,15,09,58,11.90
2009,05,15,09,59,12.00
2009,05,15,10,00,12.10
2009,05,15,10,01,12.10
2009,05,15,10,02,12.20
2009,05,15,10,03,12.20
2009,05,15,10,04,12.10
2009,05,15,10,05,12.20
2009,05,15,10,06,12.20
2009,05,15,10,07,12.10
2009,05,15,10,08,12.00
2009,05,15,10,09,12.00
2009,05,15,10,10,12.00
2009,05,15,10,11,12.10
2009,05,15,10,12,12.20
2009,05,15,10,13,12.20
2009,05,15,10,14,12.10
2009,05,15,10,15,12.10
2009,05,15,10,16,12.20
2009,05,15,10,17,12.20
2009,05,15,10,18,12.30
2009,05,15,10,19,12.40
2009,05,15,10,20,12.50
2009,05,15,10,21,12.60
2009,05,15,10,22,12.70
2009,05,15,10,23,12.70
2009,05,15,10,24,12.60
2009,05,15,10,25,12.70
2009,05,15,10,26,12.70
2009,05,15,10,27,12.60
2009,05,15,10,28,12.60
2009,05,15,10,29,12.60
2009,05,15,10,30,12.70
2009,05,15,10,31,12.80
2009,05,15,10,32,12.90
2009,05,15,10,33,13.00
2009,05,15,10,34,13.10
2009,05,15,10,35,13.20
2009,05,15,10,36,13.30
2009,05,15,10,37,13.30
2009,05,15,10,38,13.50
2009,05,15,10,39,13.50
2009,05,15,10,40,13.40
2009,05,15,10,41,13.20
2009,05,15,10,42,13.10
2009,05,15,10,43,13.00
2009,05,15,10,44,12.90
2009,05,15,10,45,12.90
2009,05,15,10,46,13.00
2009,05,15,10,47,12.90
2009,05,15,10,48,13.00
2009,05,15,10,49,13.00
2009,05,15,10,50,13.10
2009,05,15,10,51,13.10
2009,05,15,10,52,13.20
2009,05,15,10,53,13.30
2009,05,15,10,54,13.40
2009,05,15,10,55,13.50
2009,05,15,10,56,13.50
2009,05,15,10,57,13.60
2009,05,15,10,58,13.60
2009,05,15,10,59,13.60
2009,05,15,11,00,13.60
2009,05,15,11,01,13.60
2009,05,15,11,02,13.70
2009,05,15,11,03,13.80
2009,05,15,11,04,13.80
2009,05,15,11,05,13.80
2009,05,15,11,06,13.70
2009,05,15,11,07,13.60
2009,05,15,11,08,13.50
2009,05,15,11,09,13.50
2009,05,15,11,10,13.40
2009,05,15,11,11,13.40
2009,05,15,11,12,13.50
2009,05,15,11,13,13.60
2009,05,15,11,14,13.60
2009,05,15,11,15,13.70
2009,05,15,11,16,13.70
2009,05,15,11,17,13.60
2009,05,15,11,18,13.70
2009,05,15,11,19,13.70
2009,05,15,11,20,13.80
2009,05,15,11,21,13.70
2009,05,15,11,22,13.70
2009,05,15,11,23,13.80
2009,05,15,11,24,13.80
2009,05,15,11,25,13.70
2009,05,15,11,26,13.70
2009,05,15,11,27,13.70
2009,05,15,11,28,13.80
2009,05,15,11,29,13.80
2009,05,15,11,30,13.90
2009,05,15,11,31,14.00
2009,05,15,11,32,13.90
2009,05,15,11,33,13.80
2009,05,15,11,34,13.90
2009,05,15,11,35,13.90
2009,05,15,11,36,13.90
2009,05,15,11,37,14.00
2009,05,15,11,38,14.20
2009,05,15,11,39,14.30
2009,05,15,11,40,14.50
2009,05,15,11,41,14.40
2009,05,15,11,42,14.30
2009,05,15,11,43,14.30
2009,05,15,11,44,14.30
2009,05,15,11,45,14.20
2009,05,15,11,46,14.30
2009,05,15,11,47,14.20
2009,05,15,11,48,14.20
2009,05,15,11,49,14.20
2009,05,15,11,50,14.10
2009,05,15,11,51,14.10
2009,05,15,11,52,14.00
2009,05,15,11,53,14.00
2009,05,15,11,54,14.00
2009,05,15,11,55,14.00
2009,05,15,11,56,14.00
2009,05,15,11,57,13.90
2009,05,15,11,58,13.90
2009,05,15,11,59,14.00
2009,05,15,12,00,14.10
2009,05,15,12,01,14.20
2009,05,15,12,02,14.20
2009,05,15,12,03,14.10
2009,05,15,12,04,14.10
2009,05,15,12,05,14.20
2009,05,15,12,06,14.20
2009,05,15,12,07,14.00
2009,05,15,12,08,13.90
2009,05,15,12,09,14.00
2009,05,15,12,10,14.10
2009,05,15,12,11,14.30
2009,05,15,12,12,14.50
2009,05,15,12,13,14.50
2009,05,15,12,14,14.50
2009,05,15,12,15,14.60
2009,05,15,12,16,14.60
2009,05,15,12,17,14.60
2009,05,15,12,18,14.50
2009,05,15,12,19,14.40
2009,05,15,12,20,14.30
2009,05,15,12,21,14.20
2009,05,15,12,22,14.10
2009,05,15,12,23,14.10
2009,05,15,12,24,14.20
2009,05,15,12,25,14.30
2009,05,15,12,26,14.30
2009,05,15,12,27,14.20
2009,05,15,12,28,14.20
2009,05,15,12,29,14.10
2009,05,15,12,30,14.20
2009,05,15,12,31,14.30
2009,05,15,12,32,14.30
2009,05,15,12,33,14.30
2009,05,15,12,34,14.40
2009,05,15,12,35,14.40
2009,05,15,12,36,14.40
2009,05,15,12,37,14.50
2009,05,15,12,38,14.50
2009,05,15,12,39,14.40
2009,05,15,12,40,14.20
2009,05,15,12,41,14.10
2009,05,15,12,42,14.20
2009,05,15,12,43,14.20
2009,05,15,12,44,14.20
2009,05,15,12,45,14.10
2009,05,15,12,46,14.10
2009,05,15,12,47,14.20
2009,05,15,12,48,14.10
2009,05,15,12,49,14.10
2009,05,15,12,50,14.10
2009,05,15,12,51,14.10
2009,05,15,12,52,14.10
2009,05,15,12,53,14.00
2009,05,15,12,54,14.00
2009,05,15,12,55,14.00
2009,05,15,12,56,14.10
2009,05,15,12,57,14.00
2009,05,15,12,58,14.00
2009,05,15,12,59,14.10
2009,05,15,13,00,14.20
2009,05,15,13,01,14.30
2009,05,15,13,02,14.50
2009,05,15,13,03,14.60
2009,05,15,13,04,14.90
2009,05,15,13,05,15.00
2009,05,15,13,06,15.00
2009,05,15,13,07,15.00
2009,05,15,13,08,15.00
2009,05,15,13,09,15.00
2009,05,15,13,10,15.00
2009,05,15,13,11,15.00
2009,05,15,13,12,15.00
2009,05,15,13,13,15.00
2009,05,15,13,14,15.10
2009,05,15,13,15,15.20
2009,05,15,13,16,15.30
2009,05,15,13,17,15.40
2009,05,15,13,18,15.40
2009,05,15,13,19,15.50
2009,05,15,13,20,15.40
2009,05,15,13,21,15.30
2009,05,15,13,22,15.30
2009,05,15,13,23,15.30
2009,05,15,13,24,15.30
2009,05,15,13,25,15.30
2009,05,15,13,26,15.40
2009,05,15,13,27,15.40
2009,05,15,13,28,15.30
2009,05,15,13,29,15.20
2009,05,15,13,30,15.00
2009,05,15,13,31,15.00
2009,05,15,13,32,15.00
2009,05,15,13,33,15.00
2009,05,15,13,34,15.20
2009,05,15,13,35,15.30
2009,05,15,13,36,15.40
2009,05,15,13,37,15.40
2009,05,15,13,38,15.40
2009,05,15,13,39,15.40
2009,05,15,13,40,15.40
2009,05,15,13,41,15.30
2009,05,15,13,42,15.20
2009,05,15,13,43,15.00
2009,05,15,13,44,15.00
2009,05,15,13,45,15.00
2009,05,15,13,46,15.00
2009,05,15,13,47,15.00
2009,05,15,13,48,15.10
2009,05,15,13,49,15.10
2009,05,15,13,50,15.20
2009,05,15,13,51,15.30
2009,05,15,13,52,15.40
2009,05,15,13,53,15.40
2009,05,15,13,54,15.40
2009,05,15,13,55,15.50
2009,05,15,13,56,15.50
2009,05,15,13,57,15.60
2009,05,15,13,58,15.70
2009,05,15,13,59,15.80
2009,05,15,14,00,15.70
2009,05,15,14,01,15.60
2009,05,15,14,02,15.50
2009,05,15,14,03,15.50
2009,05,15,14,04,15.40
2009,05,15,14,05,15.40
2009,05,15,14,06,15.30
2009,05,15,14,07,15.20
2009,05,15,14,08,15.20
2009,05,15,14,09,15.30
2009,05,15,14,10,15.30
2009,05,15,14,11,15.40
2009,05,15,14,12,15.50
2009,05,15,14,13,15.60
2009,05,15,14,14,15.70
2009,05,15,14,15,15.70
2009,05,15,14,16,15.70
2009,05,15,14,17,15.80
2009,05,15,14,18,15.80
2009,05,15,14,19,15.70
2009,05,15,14,20,15.80
2009,05,15,14,21,15.80
2009,05,15,14,22,15.80
2009,05,15,14,23,15.90
2009,05,15,14,24,15.90
2009,05,15,14,25,15.90
2009,05,15,14,26,15.80
2009,05,15,14,27,15.70
2009,05,15,14,28,15.60
2009,05,15,14,29,15.50
2009,05,15,14,30,15.40
2009,05,15,14,31,15.30
2009,05,15,14,32,15.20
2009,05,15,14,33,15.20
2009,05,15,14,34,15.30
2009,05,15,14,35,15.40
2009,05,15,14,36,15.50
2009,05,15,14,37,15.50
2009,05,15,14,38,15.50
2009,05,15,14,39,15.50
2009,05,15,14,40,15.50
2009,05,15,14,41,15.50
2009,05,15,14,42,15.40
2009,05,15,14,43,15.30
2009,05,15,14,44,15.30
2009,05,15,14,45,15.40
2009,05,15,14,46,15.50
2009,05,15,14,47,15.50
2009,05,15,14,48,15.60
2009,05,15,14,49,15.60
2009,05,15,14,50,15.60
2009,05,15,14,51,15.70
2009,05,15,14,52,15.80
2009,05,15,14,53,15.80
2009,05,15,14,54,15.80
2009,05,15,14,55,15.80
2009,05,15,14,56,15.90
2009,05,15,14,57,16.00
2009,05,15,14,58,16.00
2009,05,15,14,59,16.00
2009,05,15,15,00,16.10
2009,05,15,15,01,16.10
2009,05,15,15,02,16.10
2009,05,15,15,03,16.20
2009,05,15,15,04,16.20
2009,05,15,15,05,16.20
2009,05,15,15,06,16.20
2009,05,15,15,07,16.20
2009,05,15,15,08,16.20
2009,05,15,15,09,16.40
2009,05,15,15,10,16.40
2009,05,15,15,11,16.40
2009,05,15,15,12,16.30
2009,05,15,15,13,16.20
2009,05,15,15,14,16.20
2009,05,15,15,15,16.20
2009,05,15,15,16,16.20
2009,05,15,15,17,16.30
2009,05,15,15,18,16.20
2009,05,15,15,19,16.30
2009,05,15,15,20,16.40
2009,05,15,15,21,16.50
2009,05,15,15,22,16.60
2009,05,15,15,23,16.50
2009,05,15,15,24,16.50
2009,05,15,15,25,16.40
2009,05,15,15,26,16.40
2009,05,15,15,27,16.40
2009,05,15,15,28,16.30
2009,05,15,15,29,16.30
2009,05,15,15,30,16.30
2009,05,15,15,31,16.20
2009,05,15,15,32,16.20
2009,05,15,15,33,16.20
2009,05,15,15,34,16.20
2009,05,15,15,35,16.10
2009,05,15,15,36,16.10
2009,05,15,15,37,16.20
2009,05,15,15,38,16.20
2009,05,15,15,39,16.20
2009,05,15,15,40,16.30
2009,05,15,15,41,16.40
2009,05,15,15,42,16.30
2009,05,15,15,43,16.30
2009,05,15,15,44,16.30
2009,05,15,15,45,16.30
2009,05,15,15,46,16.30
2009,05,15,15,47,16.40
2009,05,15,15,48,16.40
2009,05,15,15,49,16.40
2009,05,15,15,50,16.40
2009,05,15,15,51,16.30
2009,05,15,15,52,16.30
2009,05,15,15,53,16.30
2009,05,15,15,54,16.30
2009,05,15,15,55,16.30
2009,05,15,15,56,16.30
2009,05,15,15,57,16.30
2009,05,15,15,58,16.20
2009,05,15,15,59,16.20
2009,05,15,16,00,16.20
2009,05,15,16,01,16.30
2009,05,15,16,02,16.50
2009,05,15,16,03,16.60
2009,05,15,16,04,16.60
2009,05,15,16,05,16.60
2009,05,15,16,06,16.50
2009,05,15,16,07,16.50
2009,05,15,16,08,16.30
2009,05,15,16,09,16.20
2009,05,15,16,10,16.10
2009,05,15,16,11,16.00
2009,05,15,16,12,15.90
2009,05,15,16,13,15.80
2009,05,15,16,14,15.70
2009,05,15,16,15,15.70
2009,05,15,16,16,15.60
2009,05,15,16,17,15.50
2009,05,15,16,18,15.50
2009,05,15,16,19,15.40
2009,05,15,16,20,15.30
2009,05,15,16,21,15.30
2009,05,15,16,22,15.40
2009,05,15,16,23,15.50
2009,05,15,16,24,15.70
2009,05,15,16,25,15.80
2009,05,15,16,26,15.90
2009,05,15,16,27,16.00
2009,05,15,16,28,16.10
2009,05,15,16,29,16.10
2009,05,15,16,30,16.10
2009,05,15,16,31,16.20
2009,05,15,16,32,16.20
2009,05,15,16,33,16.20
2009,05,15,16,34,16.20
2009,05,15,16,35,16.30
2009,05,15,16,36,16.40
2009,05,15,16,37,16.40
2009,05,15,16,38,16.50
2009,05,15,16,39,16.50
2009,05,15,16,40,16.60
2009,05,15,16,41,16.70
2009,05,15,16,42,16.60
2009,05,15,16,43,16.60
2009,05,15,16,44,16.50
2009,05,15,16,45,16.50
2009,05,15,16,46,16.50
2009,05,15,16,47,16.50
2009,05,15,16,48,16.50
2009,05,15,16,49,16.50
2009,05,15,16,50,16.50
2009,05,15,16,51,16.50
2009,05,15,16,52,16.60
2009,05,15,16,53,16.60
2009,05,15,16,54,16.70
2009,05,15,16,55,16.80
2009,05,15,16,56,17.00
2009,05,15,16,57,17.00
2009,05,15,16,58,17.10
2009,05,15,16,59,17.10
2009,05,15,17,00,17.10
2009,05,15,17,01,17.00
2009,05,15,17,02,17.00
2009,05,15,17,03,17.00
2009,05,15,17,04,17.10
2009,05,15,17,05,17.20
2009,05,15,17,06,17.20
2009,05,15,17,07,17.20
2009,05,15,17,08,17.10
2009,05,15,17,09,16.90
2009,05,15,17,10,16.80
2009,05,15,17,11,16.90
2009,05,15,17,12,16.90
2009,05,15,17,13,16.80
2009,05,15,17,14,16.90
2009,05,15,17,15,16.90
2009,05,15,17,16,16.90
2009,05,15,17,17,16.80
2009,05,15,17,18,16.70
2009,05,15,17,19,16.60
2009,05,15,17,20,16.60
2009,05,15,17,21,16.60
2009,05,15,17,22,16.50
2009,05,15,17,23,16.60
2009,05,15,17,24,16.60
2009,05,15,17,25,16.60
2009,05,15,17,26,16.70
2009,05,15,17,27,16.80
2009,05,15,17,28,17.00
2009,05,15,17,29,17.00
2009,05,15,17,30,17.10
2009,05,15,17,31,17.20
2009,05,15,17,32,17.20
2009,05,15,17,33,17.10
2009,05,15,17,34,17.10
2009,05,15,17,35,17.10
2009,05,15,17,36,17.10
2009,05,15,17,37,17.00
2009,05,15,17,38,17.00
2009,05,15,17,39,16.90
2009,05,15,17,40,16.90
2009,05,15,17,41,17.00